Weather History for Stanton, MN

Change the Weather History Date:

Wednesday, August 28, 2013

  Actual Average (KLVN) Record (KLVN)
Temperature  
Mean Temperature 77 °F -  
Max Temperature 89 °F 78 °F 97 °F (1984)
Min Temperature 65 °F 56 °F 42 °F (1965)
Cooling Degree Days 12    
Growing Degree Days 27 (Base 50)    
Moisture  
Dew Point 70 °F    
Average Humidity 77    
Maximum Humidity 94    
Minimum Humidity 52    
Precipitation  
Precipitation 0.00 in - - ()
Sea Level Pressure  
Sea Level Pressure 29.97 in    
Wind  
Wind Speed 2 mph (ESE)    
Max Wind Speed 9 mph    
Max Gust Speed -    
Visibility 8 miles    
Events Fog    
Averages and records for this station are not official NWS values.
T = Trace of Precipitation, MM = Missing Value Source: NWS Daily Summary

Daily Weather History Graph

Daily Weather History Graph

Search for Another Location

Airport:

Trip Planner

Search our weather history database for the weather conditions in past years. The results will help you decide how hot, cold, wet, or windy it might be!

Date:

Astronomy

Aug. 28, 2013 Rise Set
Actual Time 6:30 AM CDT 7:55 PM CDT
Civil Twilight 6:00 AM CDT 8:25 PM CDT
Nautical Twilight 5:23 AM CDT 9:01 PM CDT
Astronomical Twilight 4:44 AM CDT 9:40 PM CDT
Moon No Moon Rise 2:40 PM CDT (8/28)
Length of Visible Light 14h 25m
Length of Day
13h 24m
Waning Gibbous, 47% of the Moon is Illuminated
Aug 28
Waning Gibbous
Sep 5
New
Sep 12
First Quarter
Sep 19
Full
Sep 26
Last Quarter

Hourly Weather History & Observations

Time (CDT) Temp. Heat Index Dew Point Humidity Pressure Visibility Wind Dir Wind Speed Gust Speed Precip Events Conditions
12:17 AM 76.3 °F - 72.7 °F 89% 29.92 in 10.0 mi Calm Calm - N/A   Clear
12:32 AM 76.1 °F - 71.8 °F 86% 29.91 in 10.0 mi Calm Calm - N/A   Clear
12:52 AM 74.5 °F - 71.1 °F 89% 29.92 in 10.0 mi Calm Calm - N/A   Clear
1:12 AM 73.8 °F - 70.7 °F 90% 29.91 in 10.0 mi NNE 4.6 mph - N/A   Clear
1:52 AM 72.5 °F - 69.6 °F 91% 29.92 in 7.0 mi Calm Calm - N/A   Clear
2:12 AM 71.8 °F - 69.1 °F 91% 29.91 in 5.0 mi Calm Calm - N/A   Clear
2:32 AM 72.3 °F - 70.0 °F 92% 29.91 in 1.5 mi NNE 3.5 mph - N/A   Mist
2:52 AM 71.1 °F - 68.7 °F 92% 29.92 in 5.0 mi Calm Calm - N/A   Clear
3:12 AM 70.2 °F - 67.8 °F 92% 29.92 in 0.5 mi Calm Calm - N/A Fog Fog
3:32 AM 70.7 °F - 68.5 °F 93% 29.92 in 0.2 mi Calm Calm - N/A Fog Fog
3:52 AM 68.2 °F - 66.0 °F 93% 29.92 in 0.2 mi Calm Calm - N/A Fog Fog
4:13 AM 68.0 °F - 65.8 °F 93% 29.93 in 0.2 mi Calm Calm - N/A Fog Fog
4:32 AM 67.3 °F - 65.3 °F 93% 29.93 in 0.2 mi Calm Calm - N/A Fog Fog
4:52 AM 67.5 °F - 65.5 °F 93% 29.93 in 0.2 mi Calm Calm - N/A Fog Fog
5:12 AM 66.7 °F - 64.8 °F 93% 29.93 in 0.2 mi Calm Calm - N/A Fog Fog
5:32 AM 67.1 °F - 65.3 °F 94% 29.93 in 0.2 mi Calm Calm - N/A Fog Fog
5:52 AM 66.0 °F - 64.2 °F 94% 29.94 in 0.2 mi Calm Calm - N/A Fog Fog
6:12 AM 65.3 °F - 63.5 °F 94% 29.95 in 0.2 mi Calm Calm - N/A Fog Fog
6:32 AM 65.3 °F - 63.5 °F 94% 29.95 in 0.2 mi Calm Calm - N/A Fog Fog
6:52 AM 65.7 °F - 63.9 °F 94% 29.96 in 0.2 mi Calm Calm - N/A Fog Fog
7:12 AM 65.8 °F - 64.0 °F 94% 29.97 in 0.2 mi Calm Calm - N/A Fog Fog
7:32 AM 66.9 °F - 65.1 °F 94% 29.97 in 0.2 mi Calm Calm - N/A Fog Fog
7:52 AM 70.0 °F - 68.0 °F 93% 29.97 in 0.2 mi Calm Calm - N/A Fog Fog
8:12 AM 71.2 °F - 69.3 °F 93% 29.97 in 0.5 mi Calm Calm - N/A Fog Fog
8:32 AM 73.0 °F - 71.1 °F 93% 29.98 in 7.0 mi ENE 3.5 mph - N/A   Scattered Clouds
8:52 AM 73.8 °F - 71.8 °F 93% 29.98 in 10.0 mi Calm Calm - N/A   Clear
9:12 AM 74.8 °F - 72.7 °F 93% 29.99 in 10.0 mi Calm Calm - N/A   Clear
9:32 AM 78.1 °F - 75.9 °F 93% 29.99 in 10.0 mi East 4.6 mph - N/A   Clear
9:52 AM 81.3 °F 86.3 °F 73.0 °F 76% 29.99 in 10.0 mi ESE 8.1 mph - N/A   Scattered Clouds
10:12 AM 82.8 °F 88.4 °F 73.0 °F 72% 30.00 in 10.0 mi East 5.8 mph - N/A   Scattered Clouds
10:32 AM 82.9 °F 88.3 °F 72.3 °F 70% 30.00 in 10.0 mi ESE 5.8 mph - N/A   Scattered Clouds
10:53 AM 83.5 °F 88.8 °F 71.8 °F 68% 30.00 in 10.0 mi ESE 8.1 mph - N/A   Scattered Clouds
11:12 AM 84.6 °F 90.0 °F 71.8 °F 65% 30.00 in 10.0 mi East 6.9 mph - N/A   Scattered Clouds
11:32 AM 86.0 °F 91.1 °F 70.9 °F 60% 30.00 in 10.0 mi ESE 9.2 mph - N/A   Clear
11:52 AM 85.5 °F 90.8 °F 70.9 °F 62% 30.00 in 10.0 mi ESE 9.2 mph - N/A   Scattered Clouds
12:12 PM 85.1 °F 90.1 °F 70.9 °F 62% 30.00 in 10.0 mi ESE 5.8 mph - N/A   Scattered Clouds
12:32 PM 85.5 °F 90.8 °F 71.2 °F 62% 29.99 in 10.0 mi ESE 6.9 mph - N/A   Scattered Clouds
12:52 PM 85.8 °F 91.1 °F 70.9 °F 61% 30.00 in 10.0 mi ESE 8.1 mph - N/A   Scattered Clouds
1:12 PM 86.7 °F 92.1 °F 71.1 °F 59% 30.00 in 10.0 mi SE 5.8 mph - N/A   Scattered Clouds
1:32 PM 86.4 °F 92.2 °F 71.2 °F 61% 30.00 in 10.0 mi South 3.5 mph - N/A   Scattered Clouds
1:52 PM 86.4 °F 91.8 °F 70.9 °F 60% 30.00 in 10.0 mi SSE 4.6 mph - N/A   Scattered Clouds
2:12 PM 87.3 °F 92.4 °F 70.5 °F 57% 30.00 in 10.0 mi SSE 4.6 mph - N/A   Clear
2:32 PM 86.9 °F 91.7 °F 70.2 °F 57% 30.00 in 10.0 mi Calm Calm - N/A   Clear
2:52 PM 87.6 °F 92.7 °F 70.2 °F 56% 30.00 in 10.0 mi ESE 3.5 mph - N/A   Clear
3:12 PM 87.8 °F 93.0 °F 70.5 °F 56% 29.99 in 10.0 mi ESE 5.8 mph - N/A   Clear
3:32 PM 89.2 °F 94.5 °F 70.3 °F 53% 29.98 in 10.0 mi SE 5.8 mph - N/A   Scattered Clouds
3:52 PM 88.2 °F 93.3 °F 70.3 °F 55% 29.98 in 10.0 mi SE 3.5 mph - N/A   Scattered Clouds
4:12 PM 89.1 °F 93.7 °F 69.3 °F 52% 29.98 in 10.0 mi SE 4.6 mph - N/A   Clear
4:32 PM 89.2 °F 94.1 °F 69.4 °F 52% 29.97 in 10.0 mi SE 6.9 mph - N/A   Clear
4:52 PM 86.9 °F 91.7 °F 70.0 °F 57% 29.98 in 10.0 mi Calm Calm - N/A   Clear
5:12 PM 86.2 °F 91.4 °F 70.9 °F 60% 29.98 in 10.0 mi East 5.8 mph - N/A   Clear
5:32 PM 85.5 °F 90.8 °F 71.2 °F 62% 29.97 in 10.0 mi ESE 5.8 mph - N/A   Scattered Clouds
5:52 PM 85.1 °F 90.4 °F 71.4 °F 63% 29.97 in 10.0 mi ESE 4.6 mph - N/A   Clear
6:12 PM 84.7 °F 90.4 °F 71.6 °F 65% 29.99 in 10.0 mi Calm Calm - N/A   Clear
6:32 PM 84.0 °F 89.3 °F 71.6 °F 66% 29.98 in 10.0 mi ESE 3.5 mph - N/A   Clear
6:52 PM 83.5 °F 88.5 °F 71.6 °F 67% 29.98 in 10.0 mi Calm Calm - N/A   Clear
7:12 PM 82.8 °F 87.7 °F 71.8 °F 69% 29.98 in 10.0 mi East 3.5 mph - N/A   Clear
7:32 PM 81.9 °F 86.6 °F 72.0 °F 72% 29.98 in 10.0 mi East 4.6 mph - N/A   Clear
7:52 PM 80.2 °F 84.0 °F 71.6 °F 75% 29.98 in 10.0 mi East 4.6 mph - N/A   Clear
8:12 PM 79.7 °F - 71.8 °F 77% 29.98 in 10.0 mi East 4.6 mph - N/A   Clear
8:32 PM 79.0 °F - 71.6 °F 78% 29.99 in 10.0 mi ESE 4.6 mph - N/A   Clear
8:52 PM 78.3 °F - 71.2 °F 79% 30.00 in 10.0 mi East 3.5 mph - N/A   Clear
9:12 PM 77.4 °F - 71.1 °F 81% 30.00 in 10.0 mi East 3.5 mph - N/A   Clear
9:33 PM 77.2 °F - 71.1 °F 81% 30.00 in 10.0 mi ESE 3.5 mph - N/A   Clear
9:52 PM 76.3 °F - 70.7 °F 83% 30.00 in 10.0 mi ESE 3.5 mph - N/A   Clear
10:12 PM 77.5 °F - 70.9 °F 80% 29.99 in 10.0 mi SE 4.6 mph - N/A   Clear
10:33 PM 77.4 °F - 70.7 °F 80% 30.00 in 10.0 mi SE 3.5 mph - N/A   Clear
10:52 PM 76.3 °F - 70.7 °F 83% 30.00 in 10.0 mi Calm Calm - N/A   Clear
11:12 PM 75.6 °F - 70.7 °F 85% 30.00 in 10.0 mi Calm Calm - N/A   Clear
11:33 PM 75.6 °F - 70.7 °F 85% 30.00 in 10.0 mi Calm Calm - N/A   Clear
11:52 PM 76.1 °F - 70.9 °F 84% 30.00 in 10.0 mi SSE 3.5 mph - N/A   Clear